• In Uzbekistan
  • List of Countries
  • For 7 days
  • Water Temperature
  • Satellite Maps
  • Weather Map
  • Weather Widgets
  • user-avatar
    Login

    Hourly Weather Buri

    Today, 13 December, Wednesday

    Time Temperature Precipitation Wind Pressure Humidity
    00:00 +18°C° 0 mm 3 mps 710 mmHg 88%
    01:00 +18°C° 0 mm 3 mps 710 mmHg 88%
    02:00 +17°C° 0 mm 3 mps 710 mmHg 88%
    03:00 +17°C° 0 mm 3 mps 709 mmHg 89%
    04:00 +17°C° 0 mm 3 mps 710 mmHg 89%
    05:00 +17°C° 0 mm 3 mps 710 mmHg 89%
    06:00 +17°C° 0 mm 3 mps 710 mmHg 89%
    07:00 +19°C° 0 mm 3 mps 711 mmHg 82%
    08:00 +21°C° 0 mm 3 mps 711 mmHg 75%
    09:00 +24°C° 0 mm 3 mps 712 mmHg 68%
    10:00 +26°C° 0 mm 3 mps 711 mmHg 64%
    11:00 +27°C° 0 mm 3 mps 711 mmHg 60%
    12:00 +29°C° 0 mm 2 mps 711 mmHg 56%
    13:00 +29°C° 0.1 mm 3 mps 711 mmHg 56%
    14:00 +29°C° 0.1 mm 3 mps 711 mmHg 56%
    15:00 +29°C° 0.1 mm 3 mps 710 mmHg 56%
    16:00 +28°C° 0 mm 3 mps 710 mmHg 61%
    17:00 +27°C° 0 mm 4 mps 710 mmHg 66%
    18:00 +26°C° 0 mm 4 mps 709 mmHg 71%
    19:00 +23°C° 0 mm 4 mps 710 mmHg 77%
    20:00 +21°C° 0 mm 3 mps 710 mmHg 83%
    21:00 +20°C° 0 mm 3 mps 710 mmHg 89%
    22:00 +19°C° 0 mm 3 mps 710 mmHg 90%
    23:00 +19°C° 0 mm 3 mps 711 mmHg 92%

    Tomorrow, 14 December, Thursday

    Time Temperature Precipitation Wind Pressure Humidity
    00:00 +18°C° 0 mm 2 mps 711 mmHg 93%
    01:00 +18°C° 0 mm 2 mps 710 mmHg 94%
    02:00 +17°C° 0 mm 2 mps 710 mmHg 94%
    03:00 +17°C° 0 mm 2 mps 710 mmHg 94%
    04:00 +17°C° 0 mm 2 mps 710 mmHg 94%
    05:00 +17°C° 0 mm 2 mps 710 mmHg 93%
    06:00 +17°C° 0 mm 2 mps 710 mmHg 92%
    07:00 +21°C° 0 mm 1 mps 711 mmHg 82%
    08:00 +24°C° 0 mm 1 mps 711 mmHg 72%
    09:00 +27°C° 0 mm 1 mps 712 mmHg 62%
    10:00 +28°C° 0 mm 1 mps 712 mmHg 58%
    11:00 +30°C° 0 mm 1 mps 711 mmHg 54%
    12:00 +32°C° 0 mm 1 mps 711 mmHg 50%
    13:00 +32°C° 0 mm 1 mps 711 mmHg 49%
    14:00 +32°C° 0 mm 1 mps 710 mmHg 47%
    15:00 +31°C° 0 mm 0 mps 709 mmHg 46%
    16:00 +32°C° 0 mm 1 mps 709 mmHg 50%
    17:00 +31°C° 0 mm 1 mps 708 mmHg 55%
    18:00 +30°C° 0 mm 1 mps 708 mmHg 59%
    19:00 +28°C° 0 mm 1 mps 708 mmHg 66%
    20:00 +26°C° 0 mm 2 mps 708 mmHg 73%
    21:00 +24°C° 0 mm 2 mps 709 mmHg 81%
    22:00 +23°C° 0 mm 2 mps 709 mmHg 84%
    23:00 +21°C° 0 mm 2 mps 709 mmHg 88%

    Day after tomorrow, 15 December, Friday

    Time Temperature Precipitation Wind Pressure Humidity
    00:00 +21°C° 0 mm 1 mps 709 mmHg 91%
    01:00 +21°C° 0 mm 1 mps 708 mmHg 91%
    02:00 +21°C° 0 mm 1 mps 708 mmHg 90%
    03:00 +20°C° 0 mm 1 mps 707 mmHg 90%
    04:00 +20°C° 0 mm 1 mps 708 mmHg 88%
    05:00 +21°C° 0 mm 1 mps 708 mmHg 87%
    06:00 +21°C° 0 mm 1 mps 708 mmHg 85%
    07:00 +23°C° 0 mm 1 mps 709 mmHg 76%
    08:00 +26°C° 0 mm 1 mps 709 mmHg 68%
    09:00 +29°C° 0 mm 2 mps 710 mmHg 59%
    10:00 +30°C° 0 mm 1 mps 710 mmHg 53%
    11:00 +32°C° 0 mm 1 mps 710 mmHg 47%
    12:00 +34°C° 0 mm 1 mps 710 mmHg 41%
    13:00 +33°C° 0.1 mm 1 mps 709 mmHg 42%
    14:00 +34°C° 0.1 mm 2 mps 708 mmHg 44%
    15:00 +32°C° 0.1 mm 2 mps 707 mmHg 45%
    16:00 +31°C° 0 mm 2 mps 707 mmHg 50%
    17:00 +30°C° 0 mm 2 mps 707 mmHg 55%
    18:00 +29°C° 0 mm 2 mps 706 mmHg 60%
    19:00 +27°C° 0 mm 2 mps 706 mmHg 65%
    20:00 +26°C° 0 mm 2 mps 706 mmHg 71%
    21:00 +24°C° 0 mm 2 mps 707 mmHg 76%
    22:00 +23°C° 0.1 mm 2 mps 707 mmHg 77%
    23:00 +23°C° 0.1 mm 2 mps 707 mmHg 79%

    16 December, Saturday

    Time Temperature Precipitation Wind Pressure Humidity
    00:00 +21°C° 0.1 mm 2 mps 707 mmHg 80%
    01:00 +20°C° 0 mm 2 mps 707 mmHg 81%
    02:00 +20°C° 0 mm 2 mps 707 mmHg 82%
    03:00 +19°C° 0 mm 2 mps 706 mmHg 84%
    04:00 +19°C° 0 mm 2 mps 707 mmHg 84%
    05:00 +19°C° 0 mm 2 mps 707 mmHg 84%
    06:00 +19°C° 0 mm 2 mps 707 mmHg 84%
    07:00 +21°C° 0 mm 2 mps 708 mmHg 73%
    08:00 +25°C° 0 mm 2 mps 708 mmHg 62%
    09:00 +28°C° 0 mm 2 mps 709 mmHg 51%
    10:00 +30°C° 0 mm 2 mps 709 mmHg 47%
    11:00 +32°C° 0 mm 2 mps 708 mmHg 43%
    12:00 +34°C° 0 mm 2 mps 708 mmHg 39%
    13:00 +34°C° 0 mm 1 mps 708 mmHg 37%
    14:00 +35°C° 0 mm 1 mps 707 mmHg 35%
    15:00 +35°C° 0 mm 1 mps 706 mmHg 33%
    16:00 +34°C° 0 mm 1 mps 706 mmHg 38%
    17:00 +33°C° 0 mm 1 mps 706 mmHg 43%
    18:00 +31°C° 0 mm 1 mps 706 mmHg 47%
    19:00 +29°C° 0 mm 1 mps 706 mmHg 56%
    20:00 +27°C° 0 mm 2 mps 706 mmHg 64%
    21:00 +25°C° 0 mm 2 mps 706 mmHg 73%
    22:00 +24°C° 0 mm 2 mps 706 mmHg 77%
    23:00 +23°C° 0 mm 2 mps 706 mmHg 81%

    17 December, Sunday

    Time Temperature Precipitation Wind Pressure Humidity
    00:00 +21°C° 0 mm 2 mps 706 mmHg 85%
    01:00 +21°C° 0 mm 2 mps 706 mmHg 86%
    02:00 +21°C° 0 mm 2 mps 706 mmHg 87%
    03:00 +21°C° 0 mm 2 mps 706 mmHg 88%
    04:00 +22°C° 0 mm 1 mps 706 mmHg 89%
    05:00 +22°C° 0 mm 1 mps 707 mmHg 91%
    06:00 +22°C° 0 mm 1 mps 708 mmHg 92%
    07:00 +24°C° 0 mm 2 mps 708 mmHg 83%
    08:00 +27°C° 0 mm 2 mps 709 mmHg 73%
    09:00 +29°C° 0 mm 3 mps 710 mmHg 64%
    10:00 +30°C° 0.3 mm 3 mps 710 mmHg 60%
    11:00 +31°C° 0.3 mm 3 mps 709 mmHg 57%
    12:00 +33°C° 0.3 mm 3 mps 709 mmHg 53%
    13:00 +33°C° 0.6 mm 3 mps 709 mmHg 52%
    14:00 +34°C° 0.6 mm 2 mps 709 mmHg 52%
    15:00 +34°C° 0.6 mm 2 mps 709 mmHg 51%
    16:00 +31°C° 0.9 mm 2 mps 708 mmHg 59%
    17:00 +30°C° 0.9 mm 2 mps 708 mmHg 67%
    18:00 +28°C° 0.9 mm 2 mps 708 mmHg 74%
    19:00 +27°C° 0.6 mm 1 mps 708 mmHg 79%
    20:00 +25°C° 0.6 mm 1 mps 708 mmHg 83%
    21:00 +22°C° 0.6 mm 0 mps 709 mmHg 87%
    22:00 +24°C° 0.3 mm 1 mps 709 mmHg 88%
    23:00 +23°C° 0.3 mm 1 mps 709 mmHg 89%

    18 December, Monday

    Time Temperature Precipitation Wind Pressure Humidity
    00:00 +23°C° 0.3 mm 1 mps 709 mmHg 90%
    01:00 +23°C° 0.1 mm 1 mps 709 mmHg 91%
    02:00 +21°C° 0.1 mm 0 mps 708 mmHg 91%
    03:00 +20°C° 0.1 mm 0 mps 708 mmHg 91%
    04:00 +22°C° 0 mm 1 mps 709 mmHg 92%
    05:00 +22°C° 0 mm 1 mps 709 mmHg 92%
    06:00 +22°C° 0 mm 1 mps 710 mmHg 93%
    07:00 +24°C° 0.3 mm 2 mps 710 mmHg 89%
    08:00 +25°C° 0.3 mm 3 mps 711 mmHg 84%
    09:00 +26°C° 0.3 mm 4 mps 711 mmHg 80%
    10:00 +27°C° 0.2 mm 4 mps 711 mmHg 73%
    11:00 +29°C° 0.2 mm 4 mps 711 mmHg 66%
    12:00 +30°C° 0.2 mm 4 mps 711 mmHg 60%
    13:00 +30°C° 0.2 mm 4 mps 711 mmHg 60%
    14:00 +30°C° 0.2 mm 5 mps 710 mmHg 61%
    15:00 +30°C° 0.2 mm 5 mps 710 mmHg 61%
    16:00 +28°C° 0.1 mm 5 mps 710 mmHg 67%
    17:00 +27°C° 0.1 mm 5 mps 710 mmHg 72%
    18:00 +25°C° 0.1 mm 5 mps 710 mmHg 78%
    19:00 +23°C° 0 mm 5 mps 710 mmHg 80%
    20:00 +22°C° 0 mm 4 mps 711 mmHg 83%
    21:00 +22°C° 0 mm 4 mps 711 mmHg 85%
    22:00 +21°C° 0 mm 4 mps 711 mmHg 86%
    23:00 +21°C° 0 mm 4 mps 711 mmHg 86%
    Show more